YAOGAN-35 03B (53318 NORAD) Tracking and Keplerian Element Data

This shows tracking and keplerian element data for the satellite.

Feedback or suggestion? Click here.




ElementValue
Catalog53318
NameYAOGAN-35 03B
Epoch Orbit1740
Epoch Day324.67088875
Epoch Year2022
RAAN126.9964
Inclination34.9959
Eccentricity0.0002864
Argument of Perigee323.6431
Mean Anonmoly103.4992
Mean Motion15.22831523
Decay Rate3.018E-05
L11 53318U 22088C 22324.67088875 .00003018 00000+0 12739-3 0 9998
L22 53318 34.9959 126.9964 0002864 323.6431 103.4992 15.22831523 17402



Live tracking and technical data element details for YAOGAN-35 03B (NORAD 53318). YAOGAN-35 03B can be tracked NOW for your location showing map with azimuth and elevation plus other details from your city location.







IsCatalogInMostPopularTable: catalog: 53318, numindb: 7
Update: records affected: 1



GetName: 53318 YAOGAN-35 03B

Hit Count: updated at: Thu, 08 Dec 2022 08:46:21 GMT